Location: Unspecified
(0.0000°N, 0.0000°E)
Time: 05:55:53
(UTC+00:00)

DX 1 - Pass Details

Date: 10 July 2020
Orbit: 619 x 630 km, 98.5° (Epoch: 13 August)

Event Time Altitude Azimuth Distance (km) Brightness Sun altitude
Rises 04:59:35 0° 153° (SSE) 2,905 ? -15.2°
Reaches altitude 10° 05:01:55 10° 144° (SE) 1,995 ? -14.7°
Maximum altitude 05:05:53 35° 78° (ENE) 1,006 ? -13.8°
Drops below altitude 10° 05:09:48 10° 12° (NNE) 1,980 ? -12.9°
Sets 05:12:07 0° 3° (N) 2,882 ? -12.3°
